Airderas, Indonesia

7:06 PM WIB on March 28, 2017 (GMT +0700)
Airderas

Weather History for 96109 - September, 2013

Change the Weather History Date:

Monday, September 2, 2013

  Actual Average Record
Temperature  
Mean Temperature 81 °F -  
Max Temperature 91 °F - - ()
Min Temperature 71 °F - - ()
Cooling Degree Days 16    
Growing Degree Days 31 (Base 50)    
Moisture  
Dew Point 74 °F    
Average Humidity 79    
Maximum Humidity 100    
Minimum Humidity 55    
Precipitation  
Precipitation 0.02 in - - ()
Sea Level Pressure  
Sea Level Pressure 29.81 in    
Wind  
Wind Speed 3 mph ()    
Max Wind Speed 75 mph    
Max Gust Speed -    
Visibility 4.7 miles    
Events Rain , Thunderstorm    
T = Trace of Precipitation, MM = Missing Value Source: Averaged Metar Reports

Daily Weather History Graph

Daily Weather History Graph

Search for Another Location

Airport or City:

Trip Planner

Search our weather history database for the weather conditions in past years. The results will help you decide how hot, cold, wet, or windy it might be!

Date:

Astronomy

Sep. 02, 2013 Rise Set
Actual Time 6:10 AM WIB 6:17 PM WIB
Civil Twilight 5:49 AM WIB 6:38 PM WIB
Nautical Twilight 5:25 AM WIB 7:02 PM WIB
Astronomical Twilight 5:01 AM WIB 7:26 PM WIB
Moon 3:26 AM WIB (9/2) 3:49 PM WIB (9/2)
Length of Visible Light 12h 48m
Length of Day
12h 07m
Waning Crescent, 10% of the Moon is Illuminated
Sep 2
Waning Crescent
Sep 5
New
Sep 13
First Quarter
Sep 19
Full
Sep 27
Last Quarter

Hourly Weather History & Observations

Time (WIB) Temp. Heat Index Dew Point Humidity Pressure Visibility Wind Dir Wind Speed Gust Speed Precip Events Conditions
1:00 AM 75 °F - 74 °F 95% 29.83 in 4 mi Calm Calm - -   Scattered Clouds
6:30 AM 73.4 °F - 71.6 °F 94% 29.83 in 1.9 mi Calm Calm - N/A   Partly Cloudy
7:00 AM 72 °F - 72 °F 99% 29.85 in 2 mi Calm Calm - -   Haze
7:00 AM 71.6 °F - 71.6 °F 100% 29.83 in 2.5 mi Calm Calm - N/A   Haze
8:00 AM 77.0 °F - 77.0 °F 100% 29.86 in 3.1 mi NNW 5.8 mph - N/A   Haze
9:00 AM 78.8 °F - 73.4 °F 83% 29.86 in 6.2 mi Calm Calm - N/A   Partly Cloudy
10:00 AM 83 °F - 75 °F 70% 29.87 in 6 mi Calm Calm - -   Mostly Cloudy
10:00 AM 82.4 °F 89.5 °F 75.2 °F 79% 29.86 in 6.2 mi Calm Calm - N/A   Mostly Cloudy
11:00 AM 84.2 °F 92.3 °F 75.2 °F 74% 29.83 in 6.2 mi Calm Calm - N/A   Mostly Cloudy
12:00 PM 86.0 °F 95.1 °F 75.2 °F 70% 29.80 in 6.2 mi Calm Calm - N/A   Mostly Cloudy
1:00 PM 87.8 °F 97.6 °F 75.2 °F 66% 29.77 in 6.2 mi Calm Calm - N/A   Scattered Clouds
2:00 PM 87.8 °F 97.6 °F 75.2 °F 66% 29.74 in 6.2 mi Calm Calm - N/A   Scattered Clouds
3:00 PM 89.6 °F 96.2 °F 71.6 °F 55% 29.71 in 6.2 mi Calm Calm - N/A   Scattered Clouds
4:00 PM 88 °F - 74 °F 56% 29.73 in 6 mi South 6.9 mph - -   Partly Cloudy
4:00 PM 87.8 °F 97.6 °F 75.2 °F 66% 29.71 in 6.2 mi South 6.9 mph - N/A   Scattered Clouds
5:00 PM 87.8 °F 95.6 °F 73.4 °F 62% 29.71 in 6.2 mi Calm Calm - N/A   Partly Cloudy
6:00 PM 82.4 °F 88.2 °F 73.4 °F 74% 29.77 in 5.0 mi South 11.5 mph - N/A   Partly Cloudy
7:00 PM 77 °F - 74 °F 87% 29.82 in 4 mi SSE 6.9 mph - - Rain , Thunderstorm Heavy Thunderstorms and Rain
7:00 PM 77.0 °F - 73.4 °F 89% 29.80 in 3.7 mi SSE 6.9 mph - N/A   Partly Cloudy
9:00 PM 77.0 °F - 73.4 °F 89% 29.86 in 3.7 mi South 74.8 mph - N/A   Partly Cloudy
10:00 PM 78 °F - 74 °F 82% 29.88 in 3 mi Calm Calm - -   Haze
10:00 PM 77.0 °F - 73.4 °F 89% 29.89 in 3.1 mi Calm Calm - N/A   Haze